Location: Misciano
(43.5000°N, 11.9500°E)
Time: 15:02:58
(UTC+00:00)

Cosmos 1023 Rocket - Pass Details

Date: 13 August 2020
Orbit: 737 x 772 km, 74.1° (Epoch: 18 September)

Event Time Altitude Azimuth Distance (km) Brightness Sun altitude
Rises 19:03:03 0° 193° (SSW) 3,229 7.6 -8.2°
Reaches altitude 10° 19:05:24 10° 192° (SSW) 2,308 6.8 -8.6°
Maximum altitude 19:10:39 75° 108° (ESE) 801 4.5 -9.4°
Drops below altitude 10° 19:15:55 10° 24° (NNE) 2,321 7.1 -10.3°
Sets 19:18:18 0° 22° (NNE) 3,249 7.9 -10.6°
